Regional Weather Roundup
Issued by NWS

Home | Current Version | Previous Version | Text Only | Print | Product List | Glossary On
Versions: 1 2 3 4 5 6 7 8 9 10 11 12 13 14 15 16 17 18 19 20 21 22 23 24 25 26 27 28 29 30 31 32 33 34 35 36 37 38 39 40 41 42 43 44 45 46 47 48 49 50
000
ASUS43 KMPX 291601
RWRMN
WEATHER ROUNDUP FOR MINNESOTA
NATIONAL WEATHER SERVICE TWIN CITIES/CHANHASSEN MN
1100 AM CDT TUE JUL 29 2014


NOTE: "FAIR" INDICATES FEW OR NO CLOUDS BELOW 12,000 FEET WITH NO
SIGNIFICANT WEATHER AND/OR OBSTRUCTIONS TO VISIBILITY. N/A MEANS
CURRENT SKY AND/OR WEATHER CONDITIONS ARE NOT AVAILABLE.

MNZ060>063-068>070-291700-
   Twin Cities Metro

CITY           SKY/WX    TMP DP  RH WIND       PRES   REMARKS
TWIN CITIES    SUNNY     75  56  51 NW8       30.12F
ST PAUL        SUNNY     74  58  57 NW9       30.12F
CRYSTAL        SUNNY     74  57  55 W7        30.11F
BLAINE         SUNNY     73  61  64 W7        30.12F
LAKEVILLE      SUNNY     72  59  64 W8        30.13S
EDEN PRAIRIE   SUNNY     74  59  59 W6        30.13S
SOUTH ST PAUL  SUNNY     74  56  54 NW7       30.12S
LAKE ELMO      FAIR      72  61  68 W3        30.12F
$$
MNZ001>005-007-008-013>017-022>024-027-028-291700-
   Northwest Minnesota

CITY           SKY/WX    TMP DP  RH WIND       PRES   REMARKS
BEMIDJI        SUNNY     70  55  59 NW10      30.15F
HALLOCK        SUNNY     72  57  60 NW8       30.16S
ROSEAU         SUNNY     72  61  68 W5        30.14F
WARROAD        SUNNY     72  59  64 NW9       30.13F
THIEF RVR FALL SUNNY     70  55  60 NW9       30.17S
CROOKSTON      SUNNY     70  57  64 NW6       30.18S
FOSSTON        SUNNY     70  54  56 NW7       30.18S
DETROIT LAKES  SUNNY     70  55  60 NW9       30.20S
MOORHEAD       SUNNY     72  61  68 NW3       30.19S
PARK RAPIDS    SUNNY     72  54  53 NW14      30.16F
$$
MNZ006-009>011-018-025>026-291700-
   North Central Minnesota

CITY           SKY/WX    TMP DP  RH WIND       PRES   REMARKS
BAUDETTE       SUNNY     72  55  55 NW13      30.12F
FLAG ISLAND    SUNNY     70  55  60 NW14      30.09F
INTL FALLS     SUNNY     72  57  59 NW13      30.07F
WASKISH        SUNNY     73  57  56 W7        30.12F
BIG FORK       SUNNY     72  55  56 NW6       30.11F
LONGVILLE      SUNNY     72  61  68 NW6       30.14S
GRAND RAPIDS   SUNNY     72  54  53 NW12      30.12F
CRANE LAKE     SUNNY     68  61  77 W5        30.07F
ORR            MOSUNNY   70  55  60 NW8       30.05F
COOK           MOSUNNY   68  59  73 W7        30.08F
$$
MNZ012-019>021-037-291700-
   Northeast Minnesota

CITY           SKY/WX    TMP DP  RH WIND       PRES   REMARKS
DULUTH         MOSUNNY   74  56  53 NW9       30.06F
ELY            SUNNY     68  57  68 W7G17     30.05F
HIBBING        PTSUNNY   69  56  62 NW8       30.08F
EVELETH        CLOUDY    63  57  82 CALM      30.10S
DULUTH HARBOR  MOSUNNY   70  61  73 SW6       30.05F
TWO HARBORS    SUNNY     72  55  56 NW10G20   30.02S
SILVER BAY     SUNNY     73  61  64 NW6       30.01S
GRAND MARAIS     N/A     58  50  75 CALM      30.01R
G MARAIS ARPRT MOSUNNY   66  54  63 N6        30.04S
$$
MNZ029>031-032-039>041-046>048-054>057-064-291700-
   West Central Minnesota

CITY           SKY/WX    TMP DP  RH WIND       PRES   REMARKS
FERGUS FALLS   SUNNY     70  54  56 NW7       30.19S
WHEATON        SUNNY     68  57  68 SW3       30.22S
MORRIS         SUNNY     72  59  64 NW6       30.19S
ALEXANDRIA     MOSUNNY   71  55  56 N9        30.19S
ELBOW LAKE     FAIR      68  57  68 N7        30.19S
WADENA         SUNNY     70  55  60 NW9       30.17S
GLENWOOD       SUNNY     72  55  56 NW7       30.18F
APPLETON       SUNNY     72  57  60 NW6       30.19S
BENSON         SUNNY     72  57  60 N7        30.19S
ORTONVILLE     SUNNY     70  55  60 NW7       30.20S
MADISON        SUNNY     73  59  60 N7        30.20S
WILLMAR        FAIR      72  55  56 NW8       30.19F
$$
MNZ033>034-036-042>043-049>051-058-059-291700-
   Central Minnesota

CITY           SKY/WX    TMP DP  RH WIND       PRES   REMARKS
ST CLOUD       SUNNY     75  58  55 N5        30.14S
SAUK CENTRE    FAIR      70  56  61 NW7       30.17F
PAYNESVILLE    SUNNY     70  54  55 W6        30.17F
AITKIN         SUNNY     75  57  53 N8        30.11S
PINE RIVER     SUNNY     72  57  60 W8        30.17S
BRAINERD       SUNNY     71  56  58 NW9       30.14F
STAPLES        SUNNY     72  55  56 NW10G16   30.16S
LONG PRAIRIE   FAIR      70  57  64 NW8       30.17F
LITTLE FALLS   SUNNY     72  54  53 N3        30.15F
LITCHFIELD     SUNNY     72  59  64 NW7       30.17S
BUFFALO        SUNNY     73  56  56 W9        30.15S
MAPLE LAKE     SUNNY     73  60  63 NW6       30.15F
$$
MNZ037-044-045-052-053-291700-
   East Central Minnesota

CITY           SKY/WX    TMP DP  RH WIND       PRES   REMARKS
PRINCETON      SUNNY     75  57  53 W7        30.13S
MORA           SUNNY     72  57  60 NW9       30.13S
CAMBRIDGE      SUNNY     75  59  57 W7        30.10S
RUSH CITY      SUNNY     73  60  64 W5        30.11S
MOOSE LAKE     MOSUNNY   72  57  60 NW8       30.08F
HINCKLEY       FAIR      72  61  68 NW5       30.10F
CLOQUET        MOSUNNY   70  55  60 NW10      30.08S
MCGREGOR       SUNNY     72  57  60 NW10      30.12S
$$
MNZ071>073-080-081-089-090-097-098-291700-
   Southwest Minnesota

CITY           SKY/WX    TMP DP  RH WIND       PRES   REMARKS
MONTEVIDEO     SUNNY     72  63  73 N3        30.20S
GRANITE FALLS  SUNNY     70  59  67 NW8       30.21S
CANBY          MOSUNNY   69  53  56 NW7       30.22S
MARSHALL       SUNNY     70  55  60 N9        30.20S
REDWOOD FALLS  SUNNY     72  56  57 N10       30.18S
OLIVIA         SUNNY     70  55  60 NW9       30.17F
PIPESTONE      MOSUNNY   66  52  59 N8        30.23S
WINDOM         SUNNY     70  55  60 NW7       30.21R
WORTHINGTON    MOSUNNY   68  54  60 NW8       30.23S
JACKSON        SUNNY     70  54  56 NW9       30.21S
TRACY          SUNNY     70  56  62 NW5       30.21S
SLAYTON        SUNNY     69  54  59 CALM      30.23S
$$
MNZ065>067-074>077-082>085-091>093-291700-
   South Central Minnesota

CITY           SKY/WX    TMP DP  RH WIND       PRES   REMARKS
MANKATO        SUNNY     70  55  60 NW8       30.16F
NEW ULM        SUNNY     70  57  64 W9        30.17F
ST JAMES       SUNNY     73  57  56 NW10      30.19S
FAIRMONT       SUNNY     72  55  56 N7        30.19S
GLENCOE        SUNNY     73  54  51 W12       30.15S
FARIBAULT      SUNNY     75  55  50 W6        30.15S
OWATONNA       SUNNY     72  57  60 NW7       30.15S
WASECA         SUNNY     72  55  56 W8        30.17S
ALBERT LEA     MOSUNNY   72  55  56 NW7       30.16S
$$
MNZ078>079-086>088-094>096-291700-
   Southeast Minnesota

CITY           SKY/WX    TMP DP  RH WIND       PRES   REMARKS
ROCHESTER      SUNNY     73  58  59 NW8       30.15S
RED WING       SUNNY     75  59  57 NW6       30.10F
STANTON        SUNNY     72  58  62 W6        30.12S
DODGE CENTER   SUNNY     70  61  73 NW7       30.15R
WINONA         SUNNY     73  59  60 NW7       30.10F
AUSTIN         SUNNY     72  57  60 NW7       30.15S
PRESTON        SUNNY     70  63  79 NW7       30.14S
$$
ABBREVIATIONS USED IN REMARKS
   TC - TEMPERATURES IN CELSIUS
  WCI - WIND CHILL INDEX
   HX - HEAT INDEX
  VSB - VISIBILITY
$$



USA.gov is the U.S. government's official web portal to all federal, state and local government web resources and services.